Weather in Yuzhno-Yeniseysky

Russia / Krasnoyarsk Krai     58°44′19″N   94°36′24″E
temp.,
°C
wind,
m/s
gust,
m/s
humid.,
%
clouds,
%
prec.,
mm/h
press.,
hPa
HPBL,
m
17 may, mon
mon1701:00−2n2269100 0.0 101532
04:00−2n2165100 0.0 101517
07:00+1n134786 0.0 1015377
10:00+5nnw34325 0.0 10141445
13:00+8nw35285 0.0 10132065
16:00+9nw45265 0.0 10122387
19:00+8nnw35355 0.0 10121631
22:00+1n22545 0.0 101310
18 may, tue
tue1801:00−1nne22595 0.0 101311
04:00−2n116057 0.0 101410
07:00+3ne1241100 0.0 1012261
10:00+7ene12309 0.0 10101455
13:00+11ese1125100 0.0 10071995
16:00+11ene2224100 0.0 10052112
19:00+10ene2329100 0.0 1003968
22:00+3nne3951100 0.0 1006171
19 may, wed
wed1901:00+1ne225567 0.0 100646
04:00−1nne115910 0.0 100810
07:00+4ene124198 0.0 1007263
10:00+9ese2231100 0.0 10041478
13:00+10s2332100 0.0 10022296
16:00+8n4355100 0.3 1001937
19:00+2nw2498100 8.8 1003216
22:00+1nw4898100 3.9 1002366
20 may, thu
thu2001:000w4109690 5.1 1001624
04:00−2sw499498 0.2 1002498
07:00−1ssw4685100 0.3 1004682
10:000sse2490100 0.5 1006672
13:00+2s2281100 1.6 1007917
16:00+5ssw116783 1.0 10081183
19:00+2nne3492100 1.6 1010386
22:00+1n12100100 1.3 101189
21 may, fri
fri2101:000nnw2797100 1.4 1011222
04:00−3n39935 0.0 1013179
07:00+1n38825 0.0 1013369
10:00+5n467069 0.0 10131337
13:00+5n4670100 0.1 10141280
16:00+6nnw366698 0.1 10151277
19:00+6nnw36725 0.1 1015916
22:000wnw25915 0.0 101676